Location: Fort Worth, Tx
(32.7431°N, 97.3695°W)
Time: 12:53:33
(UTC-04:00)

Tiros 1 - Pass Details

Date: 29 February 2024
Orbit: 625 x 657 km, 48.4° (Epoch: 24 April)

Event Time Altitude Azimuth Distance (km) Brightness Sun altitude
Rises 20:02:41 0° 236° (SW) 2,948 11.7 -8.4°
Reaches altitude 10° 20:05:01 10° 238° (WSW) 2,045 10.8 -8.9°
Maximum altitude 20:09:44 69° 322° (NW) 697 7.4 -9.9°
Drops below altitude 10° 20:14:29 10° 46° (NE) 2,067 9.3 -10.9°
Enters shadow 20:15:05 - 47° (NE) 2,293 9.5 -11.0°
